Location: Passau
(48.5830°N, 13.4830°E)
Time: 06:39:54
(UTC+02:00)

Courier 1B - All Passes

Search period start: 26 July 2021 00:00
Search period end: 05 August 2021 00:00
Orbit: 962 x 1209 km, 28.3° (Epoch: 25 July)

Date Brightness Start Highest point End Pass type
(mag) Time Alt. Az. Time Alt. Az. Time Alt. Az.
26 Jul - 01:10:10 10° SSW 01:13:06 13° S 01:15:58 10° SSE night (unlit)
26 Jul - 22:25:05 10° S 22:26:57 11° SSE 22:28:48 10° SSE visible
27 Jul - 00:16:18 10° SSW 00:19:38 14° S 00:22:54 10° SSE visible
27 Jul - 23:22:38 10° SSW 23:26:09 14° S 23:29:35 10° SSE visible
28 Jul - 01:16:43 10° SSW 01:18:48 11° SSW 01:20:52 10° S night (unlit)
28 Jul - 22:29:11 10° SSW 22:32:40 14° S 22:36:03 10° SE visible
29 Jul - 00:22:16 10° SW 00:25:21 13° S 00:28:23 10° SSE visible
29 Jul - 21:35:59 10° SSW 21:39:08 13° S 21:42:14 10° SE visible
29 Jul - 23:28:13 10° SW 23:31:53 14° S 23:35:26 10° SSE visible
30 Jul - 20:43:12 10° S 20:45:37 12° SSE 20:48:01 10° SSE daylight
30 Jul - 22:34:25 10° SSW 22:38:22 15° S 22:42:13 10° SSE visible
31 Jul - 00:29:17 10° SSW 00:31:01 11° SSW 00:32:45 10° S visible
31 Jul - 21:40:49 10° SSW 21:44:50 15° S 21:48:46 10° SE visible
31 Jul - 23:34:29 10° SW 23:37:34 13° SSW 23:40:35 10° SSE visible
01 Aug - 20:47:26 10° SSW 20:51:16 14° S 20:55:05 10° SE daylight
01 Aug - 22:40:16 10° SW 22:44:03 14° S 22:47:46 10° SSE visible
02 Aug - 19:54:20 10° SSW 19:57:44 13° SSE 20:01:06 10° SE daylight
02 Aug - 21:46:21 10° SW 21:50:31 15° S 21:54:36 10° SSE visible
02 Aug - 23:42:39 10° SSW 23:43:11 10° SSW 23:43:44 10° SSW visible
03 Aug - 19:01:42 10° S 19:04:11 12° SSE 19:06:40 10° SE daylight
03 Aug - 20:52:39 10° SSW 20:56:58 16° S 21:01:12 10° SE daylight
03 Aug - 22:46:53 10° SW 22:49:42 12° SSW 22:52:30 10° S visible
04 Aug - 19:59:10 10° SSW 20:03:23 15° S 20:07:35 10° SE daylight
04 Aug - 21:52:30 10° SW 21:56:11 14° S 21:59:50 10° SSE visible
